[Iaude] MPEC O80: 2024 OM [a=1.90,e=0.34,i=19.2,H=20.5]
    mpec at cfa.harvard.edu 
    mpec at cfa.harvard.edu
       
    Mon Jul 29 07:39:01 EDT 2024
    
    
  
M.P.E.C. 2024-O80                                 Issued 2024 July 29, 11:37 UT
     The Minor Planet Electronic Circulars contain information on unusual
         minor planets, routine data on comets and natural satellites,
         and occasional editorial announcements.  They are published
    on behalf of Division F of the International Astronomical Union by the
          Minor Planet Center, Smithsonian Astrophysical Observatory,
                          Cambridge, MA 02138, U.S.A.
			  
             Prepared using the Tamkin Foundation Computer Network
                              MPC at CFA.HARVARD.EDU
            URL https://www.minorplanetcenter.net/    ISSN 1523-6714
                                    2024 OM                                     
Observations:
     K24O00M* C2024 07 27.19034820 54 31.524-28 02 51.36         18.89oVEO080W68
     K24O00M  C2024 07 27.21581720 54 28.327-28 01 25.39         18.92oVEO080W68
     K24O00M  C2024 07 27.23323120 54 26.227-28 00 26.75         18.92oVEO080W68
     K24O00M  C2024 07 27.25042520 54 24.084-27 59 28.64         18.65oVEO080W68
     K24O00M KB2024 07 27.60069820 53 46.254-27 40 07.86         19.0 VZEO080Q06
     K24O00M KB2024 07 27.60444720 53 45.777-27 39 55.98         18.7 VZEO080Q06
     K24O00M KB2024 07 27.60819420 53 45.290-27 39 42.65         19.7 VZEO080Q06
     K24O00M KB2024 07 27.94214920 53 08.254-27 20 36.82         17.5 GXEO080L34
     K24O00M KB2024 07 28.11744 20 52 46.366-27 10 02.93         18.8 GXEO080L87
     K24O00M KB2024 07 28.12345 20 52 45.826-27 09 40.43         18.8 GXEO080L87
     K24O00M KB2024 07 28.12944 20 52 45.168-27 09 20.12         18.8 GXEO080L87
     K24O00M |C2024 07 28.16499020 52 43.440-27 07 17.60         18.3 GVEO080807
     K24O00M |C2024 07 28.16640020 52 43.310-27 07 12.70         18.8 GVEO080807
     K24O00M |C2024 07 28.17080020 52 42.780-27 06 58.00         19.1 GVEO080807
     K24O00M |C2024 07 28.17227020 52 42.600-27 06 52.50         18.9 GVEO080807
     K24O00M KC2024 07 28.65023 20 51 47.18 -26 38 55.2          18.6 VqEO080E94
     K24O00M KC2024 07 28.65698 20 51 46.34 -26 38 30.4          18.5 VqEO080E94
     K24O00M KC2024 07 28.66332 20 51 45.55 -26 38 08.1          18.6 VqEO080E94
     K24O00M  C2024 07 29.41416920 50 22.572-25 54 11.21         19.18wXEO080F51
     K24O00M  C2024 07 29.42453420 50 21.253-25 53 34.12         19.11wXEO080F51
     K24O00M  C2024 07 29.43490220 50 19.939-25 52 57.03         19.18wXEO080F51
     K24O00M  C2024 07 29.44525620 50 18.618-25 52 19.79         19.22wXEO080F51
Observer details:
807 Cerro Tololo Observatory, La Serena.  Observers T. Linder, R. Holmes.
    0.61-m f/6.8 Ritchey-Chretien + CCD.
E94 Possum Observatory, Gisborne.  Observer J. Drummond.  0.41-m f/4.5
    reflector + CCD.
F51 Pan-STARRS 1, Haleakala.  Observers J. Herman, T. Lowe, P. Minguez, A.
    Schultz, I. Smith.  Measurers K. Chambers, T. de Boer, J. Fairlamb, H.
    Gao, M. Huber, C.-C. Lin, E. Magnier, Y. Ramanjooloo, R. Wainscoat, R.
    Weryk.  1.8-m Ritchey-Chretien + CCD.
L34 Galhassin Robotic Telescope, Isnello.  Observer A. Nastasi.  0.40-m f/3.8
    400mm Reflector + CMO.
L87 Moonbase South Observatory, Hakos.  Observer G. Duszanowicz.  0.28-m f/1.9
    reflector + CMO.
Q06 Tarui Observatory, Tarui.  Observer H. Watanabe.  0.35-m f/1.9 Schmidt-
    Cassegrain + CMO.
W68 ATLAS Chile, Rio Hurtado.  Observers L. Denneau, R. Siverd, J. Tonry, H.
    Weiland.  Measurers L. Denneau, N. Erasmus, A. Fitzsimmons, J. Robinson,
    R. Siverd, J. Tonry, H. Weiland.  0.5-m Reflector + CCD.
Orbital elements:
2024 OM                                                  Earth MOID = 0.2544 AU
Epoch 2024 Oct. 17.0 TT = JDT 2460600.5                 Veres                   
M  14.68761              (2000.0)            P               Q                  
n   0.37768330     Peri.   27.35740     +0.91493930     +0.32062107             
a   1.8954727      Node   311.70319     -0.40345564     +0.71084427             
e   0.3436577      Incl.   19.16724     -0.01047038     +0.62602121             
P   2.61           H   20.54          G   0.15           U   9                  
Residuals in seconds of arc
240727 W68  0.6+  0.0     240728 L87 (2.2-  1.1-)   240728 E94  0.0   0.6+
240727 W68  0.3-  0.3+    240728 L87  0.2+  0.2+    240728 E94  0.4-  0.2+
240727 W68  0.1+  0.1+    240728 L87  1.0+  0.6-    240729 F51  0.0   0.0
240727 W68  0.3-  0.0     240728 807  0.8-  0.0     240729 F51  0.0   0.0
240727 Q06  0.6+  0.1+    240728 807  0.2-  0.0     240729 F51  0.0   0.1-
240727 Q06  0.3+  0.8-    240728 807  0.0   0.5-    240729 F51  0.1-  0.0
240727 Q06  0.0   0.2-    240728 807  0.1+  0.0
240727 L34  0.9+  0.8+    240728 E94  0.4+  0.2-
Ephemeris:
2024 OM                  a,e,i = 1.90, 0.34, 19                  q = 1.2441
Date    TT    R. A. (2000) Decl.     Delta      r    Elong.  Phase     V
2024 06 29    21 23 08.5 -43 58 18   0.4522  1.3916   139.4    28.4    20.8
...
2024 07 14    21 14 44.2 -37 52 40   0.3523  1.3399   152.9    20.2    19.9
...
2024 07 22    21 03 33.7 -32 30 52   0.3113  1.3159   162.3    13.6    19.4
...
2024 07 28    20 53 01.4 -27 16 54   0.2877  1.2998   170.1     7.7    19.0
2024 07 29    20 51 09.1 -26 18 31   0.2844  1.2973   171.4     6.7    18.9
2024 07 30    20 49 15.5 -25 18 31   0.2814  1.2948   172.7     5.7    18.8
...
2024 08 05    20 37 45.7 -18 48 44   0.2678  1.2812   174.2     4.6    18.6
...
2024 08 13    20 23 29.3 -09 23 09   0.2625  1.2661   162.6    13.8    18.9
...
2024 08 28    20 06 01.9 +06 44 59   0.2882  1.2481   141.3    30.4    19.6
M. P. C. Staff               (C) Copyright 2024 MPC           M.P.E.C. 2024-O80
    
    
More information about the Iaude
mailing list